Regional Weather Roundup
Issued by NWS

Home | Current Version | Previous Version | Graphics & Text | Print | Product List | Glossary On
Versions: 1 2 3 4 5 6 7 8 9 10 11 12 13 14 15 16 17 18 19 20 21 22 23 24 25 26 27 28 29 30 31 32 33 34 35 36 37 38 39 40 41 42 43 44 45 46 47 48 49 50
356
ASUS43 KDTX 251410
RWRMI
MICHIGAN HOURLY REGIONAL WEATHER ROUNDUP
NATIONAL WEATHER SERVICE DETROIT/PONTIAC MI
1000 AM EDT WED APR 25 2018

NOTE: "FAIR" INDICATES FEW OR NO CLOUDS BELOW 12,000 FEET WITH NO
SIGNIFICANT WEATHER AND/OR OBSTRUCTION TO VISIBILITY.

MIZ047>049-052>055-059>063-066>070-074>076-081>083-251500-
SOUTHEAST LOWER MICHIGAN

CITY           SKY/WX    TMP DP  RH WIND       PRES   REMARKS
ADRIAN         CLOUDY    49  46  90 N13       29.97R
ALMA           FAIR      49  42  76 NW13G18   30.01R
ANN ARBOR      CLOUDY    48  45  89 NW13      29.96R
BAD AXE        CLOUDY    44  39  83 N15       29.97R
CARO           CLOUDY    44  39  81 N14       29.98R
DETROIT CITY   CLOUDY    48  45  89 N12G20    29.94R
DETROIT        CLOUDY    50  44  80 N12G22    29.94R
FLINT          CLOUDY    48  40  73 N10       29.98F
GROSSE ILE     CLOUDY    50  47  90 N15       29.93R
HILLSDALE      CLOUDY    45  43  93 N12       29.98S
HOWELL         PTSUNNY   46  41  82 N8        29.98S

CITY           SKY/WX    TMP DP  RH WIND       PRES   REMARKS
JACKSON        CLOUDY    46  40  79 NW10      29.99S
LAMBERTVILLE   CLOUDY    54  49  85 N8G16     29.94S
LANSING        FAIR      49  38  65 N13       30.01S
LAPEER         CLOUDY    43  40  88 N10       29.97S
MASON          PTSUNNY   47  37  68 N8        29.99F
MONROE         CLOUDY    51  48  89 NW13G18   29.93R
MT. CLEMENS    CLOUDY    46  46 100 NW10      29.92S
PONTIAC        CLOUDY    44  42  93 N13       29.95R
PORT HOPE        N/A     39  37  92 N10       29.94S WCI  32
PORT HURON     CLOUDY    45  41  87 NW5       29.94S
TRI CITIES     FAIR      48  39  71 N14       30.00S
MIDLAND        FAIR      47  39  74 NW13G18   29.99F
TROY           CLOUDY    47  44  88 NW7G18    29.96R
SAGINAW HB     FAIR      46  41  81 N12       29.99S
$$
MIZ043>046-050>051-056>058-064>065-071>073-077>080-251500-
SOUTHWEST LOWER MICHIGAN

CITY           SKY/WX    TMP DP  RH WIND       PRES   REMARKS
BATTLE CREEK   FAIR      50  38  63 N9        30.02S
BENTON HARBOR  FAIR      44  34  67 N10G17    30.07R
BIG RAPIDS     FAIR      46  31  57 N10G18    30.04S
COLDWATER      CLOUDY    48  43  82 N9        30.00S
FREMONT        FAIR      47  24  39 N13G22    30.06S
HOLLAND        FAIR      50  31  48 N10G21    30.05F
GRAND RAPIDS   FAIR      50  34  54 N13       30.03F
IONIA          FAIR      49  39  66 N14       30.01F
KALAMAZOO      FAIR      51  38  60 N14       30.03S
LUDINGTON      FAIR      41  35  79 N16       30.10S
MARSHALL       FAIR      48  36  61 N7        30.00S
MOUNT PLEASANT FAIR      48  39  69 NW12G17   30.01S
MUSKEGON       FAIR      51  30  44 N17       30.07F
SOUTH HAVEN    FAIR      46  35  66 N12       30.06S
$$
MIZ016>042-251500-
NORTHERN LOWER MICHIGAN

CITY           SKY/WX    TMP DP  RH WIND       PRES   REMARKS
ALPENA         LGT RAIN  38  38 100 N9        30.03R WCI  31
BEAVER ISLAND  PTSUNNY   42  34  73 N9G16     30.10S
BELLAIRE       CLOUDY    38  34  83 N6        30.08S WCI  34
CADILLAC       CLOUDY    38  34  87 N10G18    30.04S WCI  30
CHARLEVOIX     CLOUDY    37  37 100 N6        30.12S WCI  32
FRANKFORT      PTSUNNY   41  33  75 N12G17    30.11F
GAYLORD        CLOUDY    36  34  92 NW7       30.03S WCI  30
GRAYLING       FAIR      43  36  75 NW12      30.02F
HARBOR SPRINGS PTSUNNY   40  34  79 N7        30.06S WCI  35
HOUGHTON LAKE  FAIR      43  35  73 NW13      30.02S
MANISTEE       FAIR      42  34  73 NW16G22   30.10S
OSCODA         MIX PCPN  42  40  93 N12       30.00R
PELLSTON       CLOUDY    40  34  79 N12       30.07S WCI  33
ROGERS CITY    LGT RAIN  36  35  95 NW9       30.05S WCI  29
TRAVERSE CITY  CLOUDY    40  34  79 N9        30.08S WCI  34
$$
MIZ007>008-015-251500-
EASTERN UPPER MICHIGAN

CITY           SKY/WX    TMP DP  RH WIND       PRES   REMARKS
KINROSS        CLOUDY    39  31  72 N9        30.07S WCI  33
MACKINAC ISLAN CLOUDY    39  33  77 N7        30.06S WCI  34
NEWBERRY       CLOUDY    36  32  87 N10       30.11R WCI  28
MUNISING         N/A     35  30  82 N14       30.16S WCI  26
$$
MIZ004>006-011>014-085-251500-
CENTRAL UPPER MICHIGAN

CITY           SKY/WX    TMP DP  RH WIND       PRES   REMARKS
MANISTIQUE     CLOUDY    38  31  74 NW10G16   30.12S WCI  32
ESCANABA       FAIR      40  27  59 N10       30.16F WCI  33
MENOMINEE      FAIR      40  28  62 N14       30.18F WCI  32
SAWYER-GWINN   MOSUNNY   34  27  75 NE17G24   30.16R WCI  23
$$
MIZ001>003-009>011-084-251500-
WESTERN UPPER MICHIGAN

CITY           SKY/WX    TMP DP  RH WIND       PRES   REMARKS
IRON MOUNTAIN  FAIR      37  28  70 N8        30.16F WCI  31
HOUGHTON       FAIR      37  23  56 N6        30.19F WCI  32
COPPER HARBOR    N/A     35  27  72 N8        30.20F WCI  29
IRONWOOD       FAIR      35  25  66 VRB6      30.23S WCI  30
$$

ABBREVIATIONS USED IN REMARKS
   TC - TEMPERATURE IN CELSIUS
  WCI - WIND CHILL INDEX
   HX - HEAT INDEX
  VSB - VISIBILITY





USA.gov is the U.S. government's official web portal to all federal, state and local government web resources and services.